| time (UTC) | temp F | wind direction | speed MPH | gust MPH | rain 1hr in | rain 24hr in | rain mn in | humidity % | barometer mb |
| 20260505073024 | 58 | 178 | 0.0 | 1.0 | 0.00 | 0.17 | 0.06 | 72 | 999.1 |
| 20260505071504 | 59 | 181 | 1.0 | 8.0 | 0.00 | 0.17 | 0.06 | 71 | 999.0 |
| 20260505070003 | 59 | 258 | 1.0 | 4.0 | 0.00 | 0.17 | 0.06 | 71 | 999.5 |
| 20260505064558 | 59 | 217 | 0.0 | 4.0 | 0.00 | 0.17 | 0.06 | 71 | 999.6 |
| 20260505063112 | 59 | 162 | 1.0 | 5.0 | 0.00 | 0.17 | 0.06 | 71 | 999.9 |
| 20260505061553 | 59 | 234 | 3.0 | 6.0 | 0.00 | 0.17 | 0.06 | 70 | 999.6 |
| 20260505060052 | 58 | 239 | 1.0 | 4.0 | 0.06 | 0.17 | 0.06 | 70 | 999.4 |
| 20260505054549 | 59 | 209 | 0.0 | 5.0 | 0.06 | 0.17 | 0.06 | 69 | 999.6 |
| 20260505053047 | 59 | 212 | 1.0 | 3.0 | 0.06 | 0.17 | 0.06 | 69 | 1000.1 |
| 20260505051542 | 61 | 49 | 1.0 | 9.0 | 0.06 | 0.17 | 0.06 | 69 | 1000.2 |
| 20260505041523 | 66 | 160 | 1.0 | 9.0 | 0.00 | 0.11 | 0.00 | 70 | 999.9 |
| 20260505040016 | 66 | 189 | 3.0 | 9.0 | 0.00 | 0.11 | 0.00 | 70 | 999.4 |
| 20260505034512 | 65 | 245 | 2.0 | 10.0 | 0.00 | 0.11 | 0.11 | 70 | 999.5 |
| 20260505033009 | 65 | 224 | 2.0 | 9.0 | 0.00 | 0.11 | 0.11 | 70 | 999.7 |
| 20260505031509 | 64 | 150 | 2.0 | 7.0 | 0.00 | 0.11 | 0.11 | 70 | 1000.0 |
| 20260505030004 | 64 | 158 | 1.0 | 7.0 | 0.00 | 0.11 | 0.11 | 70 | 1000.2 |
| 20260505024502 | 64 | 158 | 3.0 | 7.0 | 0.00 | 0.11 | 0.11 | 69 | 1000.4 |
| 20260505023104 | 63 | 188 | 1.0 | 5.0 | 0.06 | 0.11 | 0.11 | 69 | 1000.3 |
| 20260505021556 | 63 | 234 | 0.0 | 5.0 | 0.06 | 0.11 | 0.11 | 69 | 1000.3 |
| 20260505020056 | 62 | 234 | 1.0 | 7.0 | 0.06 | 0.11 | 0.11 | 68 | 1000.2 |
| 20260505014556 | 62 | 200 | 0.0 | 3.0 | 0.06 | 0.11 | 0.11 | 68 | 1000.1 |
| 20260505013050 | 62 | 212 | 0.0 | 1.0 | 0.00 | 0.05 | 0.05 | 67 | 1000.1 |
| 20260505011549 | 63 | 269 | 0.0 | 4.0 | 0.00 | 0.05 | 0.05 | 67 | 1000.1 |
| 20260505010104 | 63 | 209 | 2.0 | 6.0 | 0.00 | 0.05 | 0.05 | 66 | 999.9 |
| 20260505004541 | 63 | 218 | 2.0 | 6.0 | 0.05 | 0.05 | 0.05 | 66 | 999.9 |
| 20260505003043 | 62 | 216 | 2.0 | 6.0 | 0.05 | 0.05 | 0.05 | 65 | 999.6 |
| 20260505001537 | 62 | 174 | 0.0 | 4.0 | 0.05 | 0.05 | 0.05 | 64 | 999.5 |
| 20260505000043 | 67 | 253 | 6.0 | 16.0 | 0.05 | 0.05 | 0.05 | 64 | 999.6 |
| 20260504234531 | 74 | 188 | 2.0 | 11.0 | 0.00 | 0.00 | 0.00 | 65 | 998.7 |
| 20260504233029 | 75 | 201 | 3.0 | 10.0 | 0.00 | 0.00 | 0.00 | 66 | 998.8 |
| 20260504231526 | 76 | 283 | 2.0 | 12.0 | 0.00 | 0.00 | 0.00 | 66 | 998.7 |
| 20260504230036 | 76 | 203 | 1.0 | 7.0 | 0.00 | 0.00 | 0.00 | 65 | 998.7 |
| 20260504224523 | 77 | 161 | 3.0 | 12.0 | 0.00 | 0.00 | 0.00 | 66 | 999.0 |
| 20260504223016 | 78 | 217 | 1.0 | 6.0 | 0.00 | 0.00 | 0.00 | 66 | 999.1 |
| 20260504221533 | 78 | 144 | 5.0 | 12.0 | 0.00 | 0.00 | 0.00 | 66 | 999.3 |
| 20260504220011 | 77 | 235 | 5.0 | 12.0 | 0.00 | 0.00 | 0.00 | 66 | 999.4 |
| 20260504214507 | 77 | 300 | 5.0 | 14.0 | 0.00 | 0.00 | 0.00 | 66 | 999.4 |
| 20260504213004 | 77 | 195 | 4.0 | 11.0 | 0.00 | 0.00 | 0.00 | 66 | 999.7 |
| 20260504211501 | 77 | 231 | 2.0 | 13.0 | 0.00 | 0.00 | 0.00 | 66 | 999.8 |
| 20260504210101 | 77 | 240 | 2.0 | 12.0 | 0.00 | 0.00 | 0.00 | 66 | 1000.0 |
| 20260504204604 | 76 | 223 | 7.0 | 14.0 | 0.00 | 0.00 | 0.00 | 66 | 1000.0 |
| 20260504203055 | 77 | 200 | 4.0 | 17.0 | 0.00 | 0.00 | 0.00 | 66 | 1000.1 |
| 20260504201549 | 78 | 174 | 2.0 | 10.0 | 0.00 | 0.00 | 0.00 | 67 | 1000.2 |
| 20260504200046 | 78 | 281 | 6.0 | 12.0 | 0.00 | 0.00 | 0.00 | 67 | 1000.2 |
| 20260504194546 | 78 | 134 | 2.0 | 9.0 | 0.00 | 0.00 | 0.00 | 67 | 1000.4 |
| 20260504193041 | 78 | 223 | 3.0 | 11.0 | 0.00 | 0.00 | 0.00 | 67 | 1000.6 |
| 20260504191540 | 78 | 212 | 2.0 | 14.0 | 0.00 | 0.00 | 0.00 | 68 | 1000.7 |
| 20260504190033 | 78 | 180 | 2.0 | 10.0 | 0.00 | 0.00 | 0.00 | 68 | 1000.9 |
| 20260504184529 | 77 | 180 | 4.0 | 13.0 | 0.00 | 0.00 | 0.00 | 68 | 1001.1 |
| 20260504183025 | 77 | 124 | 4.0 | 11.0 | 0.00 | 0.00 | 0.00 | 69 | 1001.3 |
| 20260504181621 | 77 | 185 | 3.0 | 10.0 | 0.00 | 0.00 | 0.00 | 69 | 1001.5 |
| 20260504180019 | 77 | 203 | 8.0 | 16.0 | 0.00 | 0.00 | 0.00 | 70 | 1001.8 |
| 20260504174511 | 75 | 219 | 3.0 | 12.0 | 0.00 | 0.00 | 0.00 | 70 | 1002.2 |
| 20260504173005 | 74 | 211 | 2.0 | 11.0 | 0.00 | 0.00 | 0.00 | 70 | 1002.3 |
| 20260504171502 | 74 | 211 | 4.0 | 15.0 | 0.00 | 0.00 | 0.00 | 70 | 1002.5 |
| 20260504081540 | 49 | 200 | 1.0 | 2.0 | 0.00 | 0.00 | 0.00 | 68 | 1005.9 |